| time (UTC) | temp F | wind direction | speed MPH | gust MPH | rain 1hr in | rain 24hr in | rain mn in | humidity % | barometer mb |
| 20260510105803 | 62 | 146 | 1.0 | 2.0 | 0.00 | 0.00 | 0.00 | 81 | 1015.4 |
| 20260510105306 | 62 | 75 | 0.0 | 2.0 | 0.00 | 0.00 | 0.00 | 82 | 1015.4 |
| 20260510104304 | 62 | 94 | 0.0 | 2.0 | 0.00 | 0.00 | 0.00 | 79 | 1015.5 |
| 20260510103804 | 62 | 94 | 0.0 | 2.0 | 0.00 | 0.00 | 0.00 | 78 | 1015.5 |
| 20260510103304 | 62 | 94 | 0.0 | 2.0 | 0.00 | 0.00 | 0.00 | 78 | 1015.5 |
| 20260510102804 | 62 | 94 | 0.0 | 3.0 | 0.00 | 0.00 | 0.00 | 77 | 1015.5 |
| 20260510102306 | 62 | 94 | 1.0 | 3.0 | 0.00 | 0.00 | 0.00 | 76 | 1015.5 |
| 20260510101804 | 63 | 174 | 1.0 | 3.0 | 0.00 | 0.00 | 0.00 | 75 | 1015.5 |
| 20260510101305 | 63 | 174 | 1.0 | 3.0 | 0.00 | 0.00 | 0.00 | 74 | 1015.4 |
| 20260510100803 | 62 | 173 | 1.0 | 3.0 | 0.00 | 0.00 | 0.00 | 73 | 1015.4 |
| 20260510100306 | 62 | 174 | 2.0 | 3.0 | 0.00 | 0.00 | 0.00 | 75 | 1015.4 |
| 20260510095803 | 62 | 174 | 2.0 | 3.0 | 0.00 | 0.00 | 0.00 | 76 | 1015.4 |
| 20260510095306 | 62 | 174 | 2.0 | 5.0 | 0.00 | 0.00 | 0.00 | 74 | 1015.4 |
| 20260510094805 | 62 | 172 | 2.0 | 5.0 | 0.00 | 0.00 | 0.00 | 74 | 1015.4 |
| 20260510094304 | 61 | 171 | 2.0 | 3.0 | 0.00 | 0.00 | 0.00 | 76 | 1015.6 |
| 20260510093803 | 61 | 171 | 2.0 | 5.0 | 0.00 | 0.00 | 0.00 | 75 | 1015.6 |
| 20260510092803 | 61 | 171 | 1.0 | 5.0 | 0.00 | 0.00 | 0.00 | 76 | 1015.6 |
| 20260510092306 | 61 | 170 | 2.0 | 6.0 | 0.00 | 0.00 | 0.00 | 77 | 1015.6 |
| 20260510091804 | 61 | 161 | 2.0 | 6.0 | 0.00 | 0.00 | 0.00 | 76 | 1015.6 |
| 20260510091305 | 61 | 166 | 1.0 | 6.0 | 0.00 | 0.00 | 0.00 | 76 | 1015.7 |
| 20260510090804 | 61 | 187 | 1.0 | 3.0 | 0.00 | 0.00 | 0.00 | 78 | 1015.7 |
| 20260510090304 | 60 | 253 | 2.0 | 3.0 | 0.00 | 0.00 | 0.00 | 78 | 1015.7 |
| 20260510085803 | 60 | 264 | 2.0 | 5.0 | 0.00 | 0.00 | 0.00 | 79 | 1015.9 |
| 20260510085306 | 60 | 223 | 2.0 | 5.0 | 0.00 | 0.00 | 0.00 | 78 | 1015.9 |
| 20260510084803 | 60 | 179 | 2.0 | 5.0 | 0.00 | 0.00 | 0.00 | 77 | 1015.9 |
| 20260510084304 | 60 | 212 | 0.0 | 3.0 | 0.00 | 0.00 | 0.00 | 77 | 1015.9 |
| 20260510083305 | 59 | 202 | 2.0 | 2.0 | 0.00 | 0.00 | 0.00 | 79 | 1015.9 |
| 20260510082803 | 59 | 202 | 2.0 | 5.0 | 0.00 | 0.00 | 0.00 | 78 | 1015.9 |
| 20260510081804 | 59 | 197 | 2.0 | 5.0 | 0.00 | 0.00 | 0.00 | 78 | 1015.9 |
| 20260510081305 | 59 | 230 | 2.0 | 5.0 | 0.00 | 0.00 | 0.00 | 79 | 1015.9 |
| 20260510080803 | 59 | 238 | 2.0 | 5.0 | 0.00 | 0.00 | 0.00 | 79 | 1015.9 |
| 20260510080304 | 58 | 147 | 2.0 | 5.0 | 0.00 | 0.00 | 0.00 | 80 | 1015.9 |
| 20260510074803 | 58 | 258 | 2.0 | 5.0 | 0.00 | 0.00 | 0.00 | 81 | 1015.9 |
| 20260510074304 | 57 | 204 | 1.0 | 5.0 | 0.00 | 0.00 | 0.00 | 82 | 1015.9 |
| 20260510073305 | 57 | 270 | 1.0 | 2.0 | 0.00 | 0.00 | 0.00 | 84 | 1015.9 |
| 20260510072804 | 57 | 270 | 1.0 | 2.0 | 0.00 | 0.00 | 0.00 | 84 | 1016.0 |
| 20260510072306 | 56 | 268 | 1.0 | 3.0 | 0.00 | 0.00 | 0.00 | 85 | 1016.0 |
| 20260510070804 | 55 | 194 | 2.0 | 3.0 | 0.00 | 0.00 | 0.00 | 85 | 1016.1 |
| 20260510070305 | 55 | 192 | 2.0 | 3.0 | 0.00 | 0.00 | 0.00 | 85 | 1016.1 |
| 20260510065804 | 55 | 14 | 2.0 | 3.0 | 0.00 | 0.00 | 0.00 | 87 | 1016.2 |
| 20260510064804 | 55 | 285 | 2.0 | 3.0 | 0.00 | 0.00 | 0.00 | 87 | 1016.2 |
| 20260510063804 | 54 | 271 | 0.0 | 3.0 | 0.00 | 0.00 | 0.00 | 90 | 1016.2 |
| 20260510063305 | 54 | 269 | 0.0 | 2.0 | 0.00 | 0.00 | 0.00 | 90 | 1016.2 |
| 20260510062804 | 54 | 269 | 0.0 | 2.0 | 0.00 | 0.00 | 0.00 | 90 | 1016.4 |
| 20260510062307 | 54 | 269 | 2.0 | 2.0 | 0.00 | 0.00 | 0.00 | 90 | 1016.4 |
| 20260510061804 | 54 | 269 | 2.0 | 3.0 | 0.00 | 0.00 | 0.00 | 90 | 1016.4 |
| 20260510061304 | 54 | 269 | 2.0 | 5.0 | 0.00 | 0.00 | 0.00 | 89 | 1016.3 |
| 20260510060804 | 54 | 269 | 2.0 | 5.0 | 0.00 | 0.00 | 0.00 | 89 | 1016.3 |
| 20260510060305 | 54 | 181 | 2.0 | 5.0 | 0.00 | 0.00 | 0.00 | 89 | 1016.3 |
| 20260510055804 | 53 | 193 | 2.0 | 5.0 | 0.00 | 0.00 | 0.00 | 89 | 1016.6 |
| 20260510055307 | 53 | 282 | 2.0 | 5.0 | 0.00 | 0.00 | 0.00 | 89 | 1016.6 |
| 20260510054804 | 53 | 280 | 2.0 | 3.0 | 0.00 | 0.00 | 0.00 | 90 | 1016.6 |
| 20260510054304 | 53 | 279 | 2.0 | 3.0 | 0.00 | 0.00 | 0.00 | 91 | 1016.7 |
| 20260510053804 | 53 | 278 | 2.0 | 3.0 | 0.00 | 0.00 | 0.00 | 91 | 1016.7 |
| 20260510053306 | 53 | 278 | 2.0 | 3.0 | 0.00 | 0.00 | 0.00 | 91 | 1016.7 |
| 20260510052804 | 53 | 268 | 2.0 | 3.0 | 0.00 | 0.00 | 0.00 | 91 | 1016.7 |
| 20260510052306 | 53 | 253 | 1.0 | 3.0 | 0.00 | 0.00 | 0.00 | 91 | 1016.7 |
| 20260510051804 | 53 | 292 | 1.0 | 3.0 | 0.00 | 0.00 | 0.00 | 91 | 1016.7 |
| 20260510050804 | 53 | 297 | 1.0 | 2.0 | 0.00 | 0.00 | 0.00 | 91 | 1016.9 |
| 20260510050305 | 53 | 268 | 2.0 | 3.0 | 0.00 | 0.00 | 0.00 | 91 | 1016.9 |
| 20260510045804 | 53 | 178 | 2.0 | 5.0 | 0.00 | 0.00 | 0.00 | 91 | 1016.8 |
| 20260510045306 | 53 | 284 | 1.0 | 5.0 | 0.00 | 0.00 | 0.00 | 91 | 1016.8 |
| 20260510044803 | 53 | 270 | 1.0 | 3.0 | 0.00 | 0.00 | 0.00 | 90 | 1016.8 |
| 20260510044304 | 53 | 269 | 2.0 | 3.0 | 0.00 | 0.00 | 0.00 | 90 | 1016.9 |
| 20260510043305 | 53 | 283 | 2.0 | 5.0 | 0.00 | 0.00 | 0.00 | 90 | 1016.9 |
| 20260510042804 | 53 | 217 | 2.0 | 5.0 | 0.00 | 0.00 | 0.00 | 90 | 1016.9 |
| 20260510042307 | 53 | 255 | 1.0 | 5.0 | 0.00 | 0.00 | 0.00 | 90 | 1016.9 |
| 20260510041304 | 52 | 231 | 1.0 | 5.0 | 0.00 | 0.00 | 0.00 | 89 | 1017.0 |
| 20260510040804 | 53 | 284 | 1.0 | 2.0 | 0.00 | 0.00 | 0.00 | 89 | 1017.0 |
| 20260510040305 | 53 | 284 | 2.0 | 5.0 | 0.00 | 0.00 | 0.00 | 89 | 1017.0 |
| 20260510035804 | 53 | 284 | 2.0 | 5.0 | 0.00 | 0.00 | 0.00 | 89 | 1016.8 |
| 20260510035306 | 53 | 217 | 2.0 | 3.0 | 0.00 | 0.00 | 0.00 | 88 | 1016.8 |
| 20260510034304 | 53 | 205 | 1.0 | 3.0 | 0.00 | 0.00 | 0.00 | 87 | 1016.8 |
| 20260510033804 | 53 | 53 | 1.0 | 3.0 | 0.00 | 0.00 | 0.00 | 88 | 1016.8 |
| 20260510033305 | 53 | 280 | 2.0 | 3.0 | 0.00 | 0.00 | 0.00 | 88 | 1016.8 |
| 20260510032804 | 53 | 283 | 2.0 | 5.0 | 0.00 | 0.00 | 0.00 | 88 | 1017.1 |
| 20260510032306 | 53 | 278 | 1.0 | 5.0 | 0.00 | 0.00 | 0.00 | 89 | 1017.1 |
| 20260510031305 | 53 | 321 | 1.0 | 2.0 | 0.00 | 0.00 | 0.00 | 89 | 1017.2 |
| 20260510030804 | 53 | 327 | 1.0 | 3.0 | 0.00 | 0.00 | 0.00 | 89 | 1017.2 |
| 20260510025804 | 53 | 271 | 2.0 | 5.0 | 0.00 | 0.00 | 0.00 | 89 | 1017.4 |
| 20260510025306 | 53 | 282 | 1.0 | 3.0 | 0.00 | 0.00 | 0.00 | 89 | 1017.4 |
| 20260510024304 | 53 | 284 | 2.0 | 3.0 | 0.00 | 0.00 | 0.00 | 90 | 1017.5 |
| 20260510023804 | 53 | 289 | 2.0 | 5.0 | 0.00 | 0.00 | 0.00 | 90 | 1017.5 |
| 20260510022805 | 53 | 142 | 0.0 | 2.0 | 0.00 | 0.00 | 0.00 | 89 | 1017.5 |
| 20260510021804 | 54 | 140 | 1.0 | 2.0 | 0.00 | 0.00 | 0.00 | 89 | 1017.5 |
| 20260510021305 | 54 | 140 | 2.0 | 3.0 | 0.00 | 0.00 | 0.00 | 89 | 1017.5 |
| 20260510020804 | 54 | 52 | 2.0 | 3.0 | 0.00 | 0.00 | 0.00 | 89 | 1017.5 |
| 20260510020305 | 54 | 251 | 1.0 | 3.0 | 0.00 | 0.00 | 0.00 | 89 | 1017.5 |
| 20260510015804 | 54 | 277 | 1.0 | 3.0 | 0.00 | 0.00 | 0.00 | 89 | 1017.7 |
| 20260510015306 | 54 | 277 | 0.0 | 3.0 | 0.00 | 0.00 | 0.00 | 89 | 1017.7 |
| 20260510014805 | 54 | 225 | 0.0 | 2.0 | 0.00 | 0.00 | 0.00 | 88 | 1017.7 |
| 20260510014304 | 54 | 225 | 0.0 | 2.0 | 0.00 | 0.00 | 0.00 | 88 | 1017.6 |
| 20260510013805 | 54 | 225 | 0.0 | 2.0 | 0.00 | 0.00 | 0.00 | 88 | 1017.6 |
| 20260510013305 | 54 | 225 | 1.0 | 2.0 | 0.00 | 0.00 | 0.00 | 88 | 1017.6 |
| 20260510012307 | 54 | 225 | 1.0 | 2.0 | 0.00 | 0.00 | 0.00 | 88 | 1017.6 |
| 20260510011804 | 54 | 225 | 1.0 | 3.0 | 0.00 | 0.00 | 0.00 | 87 | 1017.6 |
| 20260510010805 | 55 | 229 | 1.0 | 3.0 | 0.00 | 0.00 | 0.00 | 87 | 1017.7 |
| 20260510010305 | 55 | 229 | 0.0 | 3.0 | 0.00 | 0.00 | 0.00 | 86 | 1017.7 |
| 20260510005306 | 55 | 275 | 1.0 | 2.0 | 0.00 | 0.00 | 0.00 | 86 | 1017.7 |
| 20260510004305 | 55 | 275 | 0.0 | 2.0 | 0.00 | 0.00 | 0.00 | 85 | 1017.8 |
| 20260510003805 | 55 | 258 | 0.0 | 2.0 | 0.00 | 0.00 | 0.00 | 85 | 1017.8 |
| 20260510003305 | 56 | 258 | 1.0 | 3.0 | 0.00 | 0.00 | 0.00 | 84 | 1017.8 |
| 20260510002804 | 56 | 258 | 1.0 | 3.0 | 0.00 | 0.00 | 0.00 | 84 | 1017.8 |
| 20260510001805 | 56 | 269 | 1.0 | 3.0 | 0.00 | 0.00 | 0.00 | 84 | 1017.8 |
| 20260510001306 | 56 | 267 | 2.0 | 3.0 | 0.00 | 0.00 | 0.00 | 85 | 1017.8 |
| 20260510000804 | 56 | 238 | 2.0 | 3.0 | 0.00 | 0.00 | 0.00 | 85 | 1017.8 |
| 20260510000305 | 56 | 267 | 1.0 | 5.0 | 0.00 | 0.00 | 0.00 | 84 | 1017.8 |
| 20260509235805 | 56 | 320 | 1.0 | 5.0 | 0.00 | 0.00 | 0.00 | 85 | 1017.8 |
| 20260509235307 | 56 | 218 | 2.0 | 5.0 | 0.00 | 0.00 | 0.00 | 84 | 1017.8 |
| 20260509234305 | 56 | 338 | 2.0 | 3.0 | 0.00 | 0.00 | 0.00 | 84 | 1017.8 |
| 20260509233805 | 56 | 260 | 2.0 | 5.0 | 0.00 | 0.00 | 0.00 | 84 | 1017.8 |
| 20260509233305 | 56 | 284 | 1.0 | 5.0 | 0.00 | 0.00 | 0.00 | 84 | 1017.8 |
| 20260509232805 | 56 | 276 | 1.0 | 2.0 | 0.00 | 0.00 | 0.00 | 83 | 1017.9 |
| 20260509232306 | 57 | 282 | 1.0 | 2.0 | 0.00 | 0.00 | 0.00 | 83 | 1017.9 |
| 20260509231804 | 57 | 282 | 1.0 | 2.0 | 0.00 | 0.00 | 0.00 | 83 | 1017.9 |
| 20260509225807 | 57 | 283 | 0.0 | 5.0 | 0.00 | 0.00 | 0.00 | 83 | 1017.9 |
| 20260509225307 | 57 | 245 | 1.0 | 2.0 | 0.00 | 0.00 | 0.00 | 82 | 1017.9 |
| 20260509224307 | 58 | 245 | 2.0 | 5.0 | 0.00 | 0.00 | 0.00 | 82 | 1017.9 |
| 20260509223806 | 58 | 253 | 2.0 | 5.0 | 0.00 | 0.00 | 0.00 | 81 | 1017.9 |
| 20260509222807 | 58 | 264 | 2.0 | 5.0 | 0.00 | 0.00 | 0.00 | 81 | 1017.9 |
| 20260509222308 | 58 | 295 | 0.0 | 2.0 | 0.00 | 0.00 | 0.00 | 80 | 1017.9 |
| 20260509221807 | 58 | 20 | 0.0 | 2.0 | 0.00 | 0.00 | 0.00 | 80 | 1017.9 |
| 20260509220857 | 58 | 20 | 1.0 | 2.0 | 0.00 | 0.00 | 0.00 | 80 | 1017.8 |
| 20260509220309 | 58 | 20 | 1.0 | 2.0 | 0.00 | 0.00 | 0.00 | 79 | 1017.8 |
| 20260509214807 | 59 | 20 | 0.0 | 2.0 | 0.00 | 0.00 | 0.00 | 78 | 1017.6 |
| 20260509214308 | 59 | 20 | 0.0 | 2.0 | 0.00 | 0.00 | 0.00 | 78 | 1017.6 |
| 20260509213808 | 59 | 20 | 0.0 | 3.0 | 0.00 | 0.00 | 0.00 | 77 | 1017.6 |
| 20260509213307 | 59 | 20 | 1.0 | 3.0 | 0.00 | 0.00 | 0.00 | 77 | 1017.6 |
| 20260509212808 | 59 | 273 | 1.0 | 2.0 | 0.00 | 0.00 | 0.00 | 77 | 1017.6 |
| 20260509212309 | 59 | 273 | 2.0 | 3.0 | 0.00 | 0.00 | 0.00 | 77 | 1017.6 |
| 20260509211807 | 60 | 272 | 2.0 | 5.0 | 0.00 | 0.00 | 0.00 | 77 | 1017.6 |
| 20260509211307 | 60 | 262 | 1.0 | 5.0 | 0.00 | 0.00 | 0.00 | 76 | 1017.7 |
| 20260509210807 | 60 | 54 | 1.0 | 3.0 | 0.00 | 0.00 | 0.00 | 75 | 1017.7 |
| 20260509210308 | 60 | 35 | 0.0 | 2.0 | 0.00 | 0.00 | 0.00 | 74 | 1017.7 |
| 20260509205808 | 61 | 53 | 0.0 | 2.0 | 0.00 | 0.00 | 0.00 | 73 | 1017.6 |
| 20260509204309 | 61 | 56 | 2.0 | 6.0 | 0.00 | 0.00 | 0.00 | 72 | 1017.7 |
| 20260509203807 | 61 | 269 | 2.0 | 5.0 | 0.00 | 0.00 | 0.00 | 71 | 1017.7 |
| 20260509202808 | 62 | 257 | 2.0 | 5.0 | 0.00 | 0.00 | 0.00 | 71 | 1017.6 |
| 20260509202308 | 62 | 313 | 2.0 | 3.0 | 0.00 | 0.00 | 0.00 | 70 | 1017.6 |
| 20260509201308 | 62 | 0 | 2.0 | 5.0 | 0.00 | 0.00 | 0.00 | 69 | 1017.6 |
| 20260509200807 | 62 | 17 | 2.0 | 5.0 | 0.00 | 0.00 | 0.00 | 69 | 1017.6 |
| 20260509200308 | 62 | 288 | 2.0 | 3.0 | 0.00 | 0.00 | 0.00 | 69 | 1017.6 |
| 20260509195807 | 62 | 27 | 2.0 | 3.0 | 0.00 | 0.00 | 0.00 | 68 | 1017.4 |
| 20260509195309 | 63 | 37 | 2.0 | 3.0 | 0.00 | 0.00 | 0.00 | 68 | 1017.4 |
| 20260509194808 | 63 | 29 | 2.0 | 3.0 | 0.00 | 0.00 | 0.00 | 67 | 1017.4 |
| 20260509194308 | 63 | 43 | 2.0 | 3.0 | 0.00 | 0.00 | 0.00 | 67 | 1017.3 |
| 20260509193807 | 63 | 74 | 2.0 | 3.0 | 0.00 | 0.00 | 0.00 | 67 | 1017.3 |
| 20260509193308 | 63 | 42 | 2.0 | 3.0 | 0.00 | 0.00 | 0.00 | 66 | 1017.3 |
| 20260509192808 | 63 | 34 | 2.0 | 3.0 | 0.00 | 0.00 | 0.00 | 67 | 1017.1 |
| 20260509191808 | 64 | 25 | 2.0 | 3.0 | 0.00 | 0.00 | 0.00 | 67 | 1017.1 |
| 20260509191308 | 64 | 8 | 2.0 | 3.0 | 0.00 | 0.00 | 0.00 | 65 | 1016.8 |
| 20260509190308 | 65 | 45 | 2.0 | 5.0 | 0.00 | 0.00 | 0.00 | 66 | 1016.8 |
| 20260509185808 | 65 | 47 | 2.0 | 5.0 | 0.00 | 0.00 | 0.00 | 66 | 1016.6 |
| 20260509185308 | 65 | 58 | 1.0 | 5.0 | 0.00 | 0.00 | 0.00 | 65 | 1016.6 |
| 20260509184807 | 65 | 48 | 1.0 | 3.0 | 0.00 | 0.00 | 0.00 | 65 | 1016.6 |
| 20260509184308 | 66 | 48 | 1.0 | 5.0 | 0.00 | 0.00 | 0.00 | 65 | 1016.5 |
| 20260509183808 | 66 | 53 | 1.0 | 5.0 | 0.00 | 0.00 | 0.00 | 64 | 1016.5 |
| 20260509183307 | 66 | 67 | 1.0 | 3.0 | 0.00 | 0.00 | 0.00 | 64 | 1016.5 |
| 20260509182807 | 66 | 67 | 1.0 | 3.0 | 0.00 | 0.00 | 0.00 | 64 | 1016.5 |
| 20260509182308 | 67 | 67 | 0.0 | 3.0 | 0.00 | 0.00 | 0.00 | 64 | 1016.5 |
| 20260509181807 | 67 | 67 | 0.0 | 3.0 | 0.00 | 0.00 | 0.00 | 63 | 1016.5 |
| 20260509180808 | 68 | 65 | 1.0 | 3.0 | 0.00 | 0.00 | 0.00 | 62 | 1016.4 |
| 20260509180308 | 69 | 65 | 0.0 | 3.0 | 0.00 | 0.00 | 0.00 | 62 | 1016.4 |
| 20260509175808 | 69 | 66 | 0.0 | 3.0 | 0.00 | 0.00 | 0.00 | 59 | 1016.3 |
| 20260509175308 | 69 | 66 | 1.0 | 3.0 | 0.00 | 0.00 | 0.00 | 59 | 1016.3 |
| 20260509174807 | 70 | 288 | 1.0 | 3.0 | 0.00 | 0.00 | 0.00 | 57 | 1016.3 |
| 20260509174309 | 70 | 288 | 0.0 | 3.0 | 0.00 | 0.00 | 0.00 | 54 | 1016.2 |
| 20260509173808 | 71 | 288 | 0.0 | 3.0 | 0.00 | 0.00 | 0.00 | 55 | 1016.2 |
| 20260509172309 | 71 | 288 | 2.0 | 5.0 | 0.00 | 0.00 | 0.00 | 50 | 1016.1 |
| 20260509171807 | 72 | 288 | 2.0 | 7.0 | 0.00 | 0.00 | 0.00 | 48 | 1016.1 |
| 20260509171308 | 72 | 61 | 2.0 | 7.0 | 0.00 | 0.00 | 0.00 | 48 | 1016.0 |
| 20260509170808 | 72 | 154 | 2.0 | 5.0 | 0.00 | 0.00 | 0.00 | 46 | 1016.0 |
| 20260509170310 | 72 | 37 | 2.0 | 7.0 | 0.00 | 0.00 | 0.00 | 46 | 1016.0 |
| 20260509165807 | 73 | 202 | 2.0 | 8.0 | 0.00 | 0.00 | 0.00 | 45 | 1015.9 |
| 20260509165310 | 73 | 238 | 2.0 | 8.0 | 0.00 | 0.00 | 0.00 | 46 | 1015.9 |
| 20260509164808 | 73 | 234 | 2.0 | 6.0 | 0.00 | 0.00 | 0.00 | 45 | 1015.9 |
| 20260509164309 | 73 | 243 | 3.0 | 8.0 | 0.00 | 0.00 | 0.00 | 45 | 1015.8 |
| 20260509163807 | 73 | 306 | 3.0 | 8.0 | 0.00 | 0.00 | 0.00 | 47 | 1015.8 |
| 20260509163310 | 73 | 270 | 3.0 | 7.0 | 0.00 | 0.00 | 0.00 | 48 | 1015.8 |
| 20260509162310 | 74 | 171 | 2.0 | 6.0 | 0.00 | 0.00 | 0.00 | 47 | 1015.9 |
| 20260509160808 | 74 | 70 | 2.0 | 6.0 | 0.00 | 0.00 | 0.00 | 43 | 1016.0 |
| 20260509160310 | 74 | 282 | 2.0 | 7.0 | 0.00 | 0.00 | 0.00 | 44 | 1016.0 |
| 20260509155807 | 74 | 45 | 2.0 | 7.0 | 0.00 | 0.00 | 0.00 | 44 | 1016.0 |
| 20260509155309 | 73 | 319 | 2.0 | 6.0 | 0.00 | 0.00 | 0.00 | 45 | 1016.0 |
| 20260509154808 | 73 | 65 | 2.0 | 7.0 | 0.00 | 0.00 | 0.00 | 45 | 1016.0 |
| 20260509154309 | 73 | 198 | 3.0 | 7.0 | 0.00 | 0.00 | 0.00 | 43 | 1016.0 |
| 20260509153809 | 73 | 173 | 3.0 | 7.0 | 0.00 | 0.00 | 0.00 | 42 | 1016.0 |
| 20260509152807 | 73 | 275 | 2.0 | 6.0 | 0.00 | 0.00 | 0.00 | 42 | 1016.2 |
| 20260509152309 | 73 | 201 | 2.0 | 6.0 | 0.00 | 0.00 | 0.00 | 42 | 1016.2 |
| 20260509151807 | 73 | 358 | 2.0 | 5.0 | 0.00 | 0.00 | 0.00 | 45 | 1016.2 |
| 20260509150808 | 72 | 187 | 2.0 | 6.0 | 0.00 | 0.00 | 0.00 | 51 | 1016.2 |
| 20260509150309 | 72 | 283 | 3.0 | 6.0 | 0.00 | 0.00 | 0.00 | 50 | 1016.2 |
| 20260509145808 | 71 | 281 | 3.0 | 8.0 | 0.00 | 0.00 | 0.00 | 56 | 1016.1 |
| 20260509145309 | 70 | 261 | 2.0 | 8.0 | 0.00 | 0.00 | 0.00 | 52 | 1016.1 |
| 20260509144807 | 70 | 280 | 2.0 | 8.0 | 0.00 | 0.00 | 0.00 | 52 | 1016.1 |
| 20260509143808 | 69 | 85 | 2.0 | 5.0 | 0.00 | 0.00 | 0.00 | 57 | 1016.1 |
| 20260509143309 | 69 | 259 | 1.0 | 5.0 | 0.00 | 0.00 | 0.00 | 62 | 1016.1 |
| 20260509142807 | 69 | 64 | 1.0 | 5.0 | 0.00 | 0.00 | 0.00 | 63 | 1016.2 |
| 20260509142308 | 69 | 64 | 1.0 | 5.0 | 0.00 | 0.00 | 0.00 | 66 | 1016.2 |
| 20260509141808 | 69 | 46 | 1.0 | 2.0 | 0.00 | 0.00 | 0.00 | 65 | 1016.2 |
| 20260509141309 | 69 | 46 | 2.0 | 5.0 | 0.00 | 0.00 | 0.00 | 64 | 1016.1 |
| 20260509140808 | 70 | 47 | 2.0 | 5.0 | 0.00 | 0.00 | 0.00 | 61 | 1016.1 |
| 20260509140310 | 70 | 63 | 2.0 | 5.0 | 0.00 | 0.00 | 0.00 | 57 | 1016.1 |
| 20260509135808 | 70 | 83 | 2.0 | 6.0 | 0.00 | 0.00 | 0.00 | 51 | 1016.4 |
| 20260509135308 | 70 | 350 | 3.0 | 9.0 | 0.00 | 0.00 | 0.00 | 48 | 1016.4 |
| 20260509134807 | 70 | 78 | 3.0 | 9.0 | 0.00 | 0.00 | 0.00 | 48 | 1016.4 |
| 20260509134309 | 70 | 63 | 2.0 | 9.0 | 0.00 | 0.00 | 0.00 | 50 | 1016.4 |
| 20260509133808 | 70 | 53 | 2.0 | 9.0 | 0.00 | 0.00 | 0.00 | 48 | 1016.4 |
| 20260509133308 | 70 | 323 | 2.0 | 6.0 | 0.00 | 0.00 | 0.00 | 51 | 1016.4 |
| 20260509132809 | 70 | 74 | 2.0 | 6.0 | 0.00 | 0.00 | 0.00 | 56 | 1016.4 |
| 20260509132309 | 71 | 41 | 2.0 | 7.0 | 0.00 | 0.00 | 0.00 | 53 | 1016.4 |
| 20260509131807 | 71 | 153 | 2.0 | 7.0 | 0.00 | 0.00 | 0.00 | 48 | 1016.4 |
| 20260509131310 | 71 | 68 | 2.0 | 5.0 | 0.00 | 0.00 | 0.00 | 52 | 1016.4 |
| 20260509130807 | 72 | 157 | 2.0 | 7.0 | 0.00 | 0.00 | 0.00 | 49 | 1016.4 |
| 20260509130310 | 72 | 332 | 2.0 | 7.0 | 0.00 | 0.00 | 0.00 | 48 | 1016.4 |
| 20260509125809 | 73 | 318 | 2.0 | 7.0 | 0.00 | 0.00 | 0.00 | 47 | 1016.3 |
| 20260509125312 | 73 | 12 | 3.0 | 9.0 | 0.00 | 0.00 | 0.00 | 46 | 1016.3 |
| 20260509124808 | 73 | 48 | 3.0 | 9.0 | 0.00 | 0.00 | 0.00 | 46 | 1016.3 |
| 20260509124310 | 74 | 204 | 3.0 | 8.0 | 0.00 | 0.00 | 0.00 | 46 | 1016.3 |
| 20260509123808 | 74 | 85 | 3.0 | 8.0 | 0.00 | 0.00 | 0.00 | 47 | 1016.3 |
| 20260509123310 | 74 | 0 | 2.0 | 7.0 | 0.00 | 0.00 | 0.00 | 47 | 1016.3 |
| 20260509122809 | 74 | 76 | 2.0 | 7.0 | 0.00 | 0.00 | 0.00 | 44 | 1016.4 |
| 20260509122309 | 75 | 79 | 2.0 | 7.0 | 0.00 | 0.00 | 0.00 | 44 | 1016.4 |
| 20260509121808 | 75 | 21 | 2.0 | 7.0 | 0.00 | 0.00 | 0.00 | 45 | 1016.4 |
| 20260509121310 | 75 | 115 | 2.0 | 7.0 | 0.00 | 0.00 | 0.00 | 45 | 1016.5 |
| 20260509120808 | 74 | 100 | 2.0 | 7.0 | 0.00 | 0.00 | 0.00 | 46 | 1016.5 |
| 20260509120310 | 74 | 178 | 2.0 | 7.0 | 0.00 | 0.00 | 0.00 | 47 | 1016.5 |
| 20260509115808 | 74 | 70 | 2.0 | 7.0 | 0.00 | 0.00 | 0.00 | 47 | 1016.6 |
| 20260509115310 | 74 | 243 | 2.0 | 6.0 | 0.00 | 0.00 | 0.00 | 50 | 1016.6 |
| 20260509114808 | 74 | 45 | 2.0 | 6.0 | 0.00 | 0.00 | 0.00 | 49 | 1016.6 |
| 20260509113808 | 73 | 65 | 2.0 | 8.0 | 0.00 | 0.00 | 0.00 | 49 | 1016.8 |
| 20260509113310 | 73 | 67 | 2.0 | 8.0 | 0.00 | 0.00 | 0.00 | 48 | 1016.8 |
| 20260509112809 | 73 | 82 | 2.0 | 5.0 | 0.00 | 0.00 | 0.00 | 48 | 1016.9 |
| 20260509111809 | 73 | 173 | 2.0 | 5.0 | 0.00 | 0.00 | 0.00 | 51 | 1016.9 |
| 20260509111309 | 72 | 35 | 2.0 | 7.0 | 0.00 | 0.00 | 0.00 | 53 | 1017.1 |
| 20260509110808 | 72 | 18 | 2.0 | 7.0 | 0.00 | 0.00 | 0.00 | 54 | 1017.1 |
| 20260509110308 | 71 | 72 | 2.0 | 5.0 | 0.00 | 0.00 | 0.00 | 54 | 1017.1 |